This is the latest recevied weather packets stored in our database for station/object DL3GCR-10. If no packets are shown the sender has not sent any weather packets the latest 10 day(s).
| Time | Temp. | Humidity | Pressure | Rain* | Wind** | Luminosity | Snow |
|---|---|---|---|---|---|---|---|
| 1777396922 | 21.11° C | 27% | 1016.9 hPa | - | - | - | - |
| 1777396022 | 21.67° C | 28% | 1016.8 hPa | - | - | - | - |
| 1777395121 | 21.67° C | 26% | 1016.8 hPa | - | - | - | - |
| 1777394220 | 22.22° C | 28% | 1016.7 hPa | - | - | - | - |
| 1777393322 | 22.78° C | 28% | 1016.7 hPa | - | - | - | - |
| 1777392422 | 22.78° C | 25% | 1016.5 hPa | - | - | - | - |
| 1777391522 | 22.78° C | 23% | 1016.6 hPa | - | - | - | - |
| 1777390622 | 22.78° C | 24% | 1016.5 hPa | - | - | - | - |
| 1777389721 | 23.33° C | 23% | 1016.5 hPa | - | - | - | - |
| 1777388821 | 23.33° C | 22% | 1016.6 hPa | - | - | - | - |
| 1777387921 | 23.33° C | 22% | 1016.6 hPa | - | - | - | - |
| 1777387021 | 23.89° C | 21% | 1016.7 hPa | - | - | - | - |
| 1777386121 | 24.44° C | 21% | 1016.6 hPa | - | - | - | - |
| 1777385220 | 25° C | 19% | 1016.7 hPa | - | - | - | - |
| 1777384320 | 25° C | 20% | 1016.9 hPa | - | - | - | - |
| 1777383420 | 25° C | 19% | 1017 hPa | - | - | - | - |
| 1777382520 | 25° C | 22% | 1016.9 hPa | - | - | - | - |
| 1777381620 | 24.44° C | 21% | 1017 hPa | - | - | - | - |
| 1777380720 | 25° C | 21% | 1016.9 hPa | - | - | - | - |
| 1777379819 | 25° C | 22% | 1017.1 hPa | - | - | - | - |
| 1777378919 | 25° C | 22% | 1017.2 hPa | - | - | - | - |
| 1777378019 | 24.44° C | 22% | 1017.3 hPa | - | - | - | - |
| 1777377119 | 24.44° C | 21% | 1017.2 hPa | - | - | - | - |
| 1777376219 | 24.44° C | 23% | 1017.3 hPa | - | - | - | - |
| 1777375319 | 23.33° C | 26% | 1017.4 hPa | - | - | - | - |
* Rain since midnight (hover to see other rain measurements)
** Current wind speed in m/s (hover to see current wind gust speed)